Flag Weather past 2 weeks in Niterói, Rio de Janeiro, Brazil

Now
84 °F

Partly sunny.


Feels Like: 88 °F
Forecast: 78 / 87 °F
Wind: 6 mph from North

Location: Rio De Janeiro Airport

Current Time: Nov 26, 2014 at 9:34:51 AM

Latest Report: Nov 26, 2014 at 9:00 AM


Visibility: N/A

Pressure: 29.74 "Hg

Humidity: 62%

Dew point: 70 °F

Location of NiteróiLocation

Historic Weather in Niterói — Graph

°F

Niterói temperature yesterday

Maximum temperature yesterday: 84 °F (at 2:00 PM)
Minimum temperature yesterday: 72 °F (at 6:00 AM)
Average temperature yesterday: 79 °F

Past Weeks' High & Low Weather Summary

 TemperatureHumidityPressure
High93 °F (Nov 22, 12:00 PM)100% (Nov 16, 6:00 AM)30.07 "Hg (Nov 16, 6:00 AM)
Low66 °F (Nov 15, 8:00 AM)46% (Nov 22, 6:00 PM)29.62 "Hg (Nov 12, 5:00 PM)
Average76 °F74%29.91 "Hg
* Reported Nov 11 8:00 AM — Nov 26 8:00 AM, Niterói, Weather by CustomWeather, © 2014

Note: Actual official high and low records may vary slightly from our data, if they occured in-between our weather recording intervals... More about our weather records

Advertising

Niterói weather history for previous 24 hours

 ConditionsComfort  
Time TempWeatherWind HumidityBarometerVisibility
8:00 AM
Nov 26
82 °FScattered clouds.No wind66%29.74 "HgN/A
7:00 AM81 °FScattered clouds.1 mph70%29.71 "HgN/A
6:00 AM79 °FPartly sunny.6 mph79%29.71 "HgN/A
11:00 PM
Nov 25
82 °FClear.2 mph74%29.77 "Hg10 mi
10:00 PM82 °FClear.No wind74%29.77 "Hg10 mi
9:00 PM79 °FClear.1 mph79%29.74 "Hg10 mi
8:00 PM77 °FPassing clouds.5 mph83%29.74 "HgN/A
7:00 PM79 °FPassing clouds.8 mph79%29.71 "HgN/A
6:00 PM84 °FPassing clouds.13 mph66%29.71 "HgN/A
5:00 PM84 °FPassing clouds.14 mph66%29.71 "HgN/A
4:00 PM84 °FPassing clouds.14 mph66%29.74 "HgN/A
3:00 PM84 °FPassing clouds.15 mph70%29.77 "HgN/A
2:00 PM84 °FPassing clouds.8 mph70%29.80 "HgN/A
1:00 PM81 °FPassing clouds.12 mph74%29.83 "HgN/A
12:00 PM81 °FScattered clouds.6 mph74%29.86 "Hg5 mi
11:00 AM77 °FScattered clouds.8 mph83%29.86 "Hg4 mi
10:00 AM75 °FBroken clouds.5 mph89%29.89 "Hg5 mi
9:00 AM77 °FScattered clouds.1 mph83%29.89 "Hg4 mi
Weather by CustomWeather, © 2014

See weather overviewHow to use our weather pages